Rbgn^[z[y[W
メイン
   新天体発見情報
     Comet P/2008 T4 = 2017 Q1 (Hill)
投稿するにはまず登録を

スレッド表示 | 新しいものから 前のトピック | 次のトピック | 下へ
投稿者 スレッド
佐藤裕久
投稿日時: 2017-8-23 22:34
モデレータ
登録日: 2005-6-12
居住地: 日本
投稿: 2505
オンライン
Comet P/2008 T4 = 2017 Q1 (Hill)

R. Werykの通報によると、8月18日、Haleakalaにある1.8-m Pan-STARRS1望遠鏡で得たw-バンドCCD露出
からP/2008 T4 (IAUC 8994を参照)を検出した。
この天体は、尾はなく、半値全幅(FWHM)は1".4で比較した隣接する恒星は1".0〜 1".2であった。
Werykは、また7月25日の彗星の恒星状のイメージから同一と認識した。
ICQ's 2017 Comet Handbookの中野主一氏の予報に対して、Delta(T)は、-0.67 dayであった。

検出位置は次のとおり、


     2017 UT             R.A. (2000) Decl.       Mag.
     July 25.56262   23 09 03.55   -14 18 48.0   23.4
          25.57379   23 09 03.43   -14 18 49.9   23.5
          25.58494   23 09 03.29   -14 18 51.5   23.2
          25.59609   23 09 03.15   -14 18 53.3   23.3
     Aug. 18.48679   22 59 40.83   -15 43 07.8   21.8
          18.49796   22 59 40.39   -15 43 10.3   22.1
          18.50911   22 59 39.99   -15 43 12.8   22.0

連結軌道要素と位置推算表は次のとおり、

Orbital elements:
    P/2008 T4 (Hill)
Epoch 2009 Jan. 9.0 TT = JDT 2454840.5
T 2008 Dec. 23.95167 TT                                 MPCW
q   2.5117179            (2000.0)            P               Q
n   0.10510799     Peri.    1.25916     +0.69547200     -0.71436310
a   4.4467792      Node    44.68350     +0.65829273     +0.59020399
e   0.4351602      Incl.    6.32638     +0.28804406     +0.37595825
P   9.38
>From 253 observations 2008 Sept. 28-2017 Aug. 18, mean residual 0".5.

    P/2008 T4 (Hill)
Epoch 2018 June 11.0 TT = JDT 2458280.5
T 2018 May 28.96180 TT                                  MPCW
q   2.5265113            (2000.0)            P               Q
n   0.10442535     Peri.    1.52588     +0.69307544     -0.71672273
a   4.4661375      Node    44.60907     +0.66021139     +0.58813219
e   0.4342961      Incl.    6.30868     +0.28942591     +0.37471196
P   9.44
>From 253 observations 2008 Sept. 28-2017 Aug. 18, mean residual 0".5.

    P/2008 T4 (Hill)
Epoch 2027 Nov. 11.0 TT = JDT 2461720.5
T 2027 Oct. 29.95478 TT                                 MPCW
q   2.5132850            (2000.0)            P               Q
n   0.10495373     Peri.    1.57933     +0.69363613     -0.71618835
a   4.4511353      Node    44.51135     +0.65967436     +0.58859933
e   0.4353609      Incl.    6.31337     +0.28930721     +0.37500009
P   9.39
>From 253 observations 2008 Sept. 28-2017 Aug. 18, mean residual 0".5.

    P/2008 T4 (Hill)
Epoch 2017 Sept. 4.0 TT = JDT 2458000.5
T 2018 May 29.04812 TT                                  MPCW
q   2.5263226            (2000.0)            P               Q
n   0.10445623     Peri.    1.55164     +0.69275346     -0.71703388
a   4.4652572      Node    44.60904     +0.66047545     +0.58783516
e   0.4342268      Incl.    6.30874     +0.28959425     +0.37458275
P   9.44
>From 253 observations 2008 Sept. 28-2017 Aug. 18, mean residual 0".5.

Ephemeris:
    P/2008 T4 (Hill)
Date    TT    R. A. (2000) Decl.     Delta      r     Elong.  Phase   m1
2017 07 20    23 09 44.9 -14 04 56   2.4969  3.2827   133.8    12.9  22.6
...
2017 08 04    23 06 32.8 -14 48 12   2.3162  3.2259   148.6     9.4  22.4
...
2017 08 12    23 03 10.0 -15 17 35   2.2398  3.1959   156.7     7.2  22.3
...
2017 08 18    22 59 57.8 -15 41 09   2.1928  3.1736   162.7     5.4  22.2
2017 08 19    22 59 22.8 -15 45 07   2.1859  3.1699   163.6     5.2  22.2
2017 08 20    22 58 47.1 -15 49 06   2.1792  3.1662   164.6     4.9  22.2
...
2017 08 26    22 54 58.7 -16 12 44   2.1449  3.1440   169.5     3.4  22.1
...
2017 09 03    22 49 28.3 -16 42 10   2.1146  3.1148   170.9     2.9  22.1
...
2017 09 18    22 39 03.3 -17 23 19   2.1049  3.0608   158.2     7.0  22.0

(CBET 4421、4422、MPEC 2017-Q47)
スレッド表示 | 新しいものから 前のトピック | 次のトピック | トップ

投稿するにはまず登録を
 
© 1999 Tsutomu Seki.